Location: Camps Bay
(33.9517°S, 18.3844°E)
Time: 09:12:31
(UTC+00:00)

H-2A R/B - Pass Details

Date: 18 January 2020
Orbit: 579 x 655 km, 98.5° (Epoch: 17 February)

Event Time Altitude Azimuth Distance (km) Brightness Sun altitude
Rises 03:13:09 0° 188° (S) 2,872 5.8 -8.1°
Reaches altitude 10° 03:16:05 10° 210° (SSW) 1,947 4.6 -7.6°
Maximum altitude 03:18:36 16° 247° (WSW) 1,589 3.8 -7.2°
Drops below altitude 10° 03:21:06 10° 284° (WNW) 1,914 4.0 -6.7°
Enters shadow 03:21:45 - 291° (WNW) 2,087 4.1 -6.6°
